Wind_Speed
35 35 35 35 32 34 60 51 42 19 30 37 35 42 38 32 29 14 13 33 37 33 28 35 31 27 23 19 23 24 23 21 22 22 20 18 16 16 14 12 10 10 10 9 11 8 9 8 10
34 39 37 38 44 43 81 45 46 36 24 24 37 40 35 38 29 21 20 16 33 36 28 33 37 31 26 23 22 24 24 22 22 22 20 18 17 15 15 12 10 10 10 10 12 10 9 8 10
32 37 43 39 47 74 56 32 39 38 33 30 30 38 39 41 37 28 27 18 18 39 36 31 34 36 31 27 24 26 25 25 23 22 21 19 17 16 15 12 11 11 11 11 11 12 11 10 11
34 35 50 52 64 93 58 33 28 33 36 35 32 37 42 40 39 41 35 23 18 34 33 35 34 35 34 31 27 26 26 27 25 23 22 20 18 18 16 13 12 12 12 13 13 14 12 12 12
41 41 52 58 75 77 52 43 21 25 33 34 34 37 38 42 39 31 34 37 29 27 39 37 34 37 35 33 30 28 29 29 27 25 23 20 19 18 17 15 14 14 14 13 13 14 14 13 13
48 51 32 58 72 65 59 43 45 27 30 34 36 36 32 40 34 37 34 31 29 29 39 34 36 40 36 33 32 31 30 31 29 27 25 23 21 20 19 16 15 15 15 14 15 15 15 15 15
50 48 50 35 58 61 64 50 45 40 38 32 29 35 34 39 35 33 32 33 34 28 37 43 35 38 38 38 36 35 32 33 31 29 28 25 22 21 21 18 18 17 16 16 16 16 17 16 16
54 44 50 57 36 56 55 46 50 53 44 37 31 40 38 37 36 31 35 36 36 38 32 42 40 37 38 41 40 36 34 34 34 33 31 28 25 24 23 21 20 19 18 18 17 17 18 18 17
54 45 44 49 43 46 44 47 45 46 48 43 48 52 33 28 30 40 35 36 38 42 42 36 37 39 38 40 41 39 38 38 37 36 34 30 29 27 26 24 22 20 20 21 19 19 19 19 17
28 47 53 46 43 33 46 45 35 44 48 50 50 50 52 45 43 41 42 41 43 40 44 44 39 38 38 39 42 42 43 43 42 40 36 33 31 29 27 26 25 22 22 23 22 21 20 20 18
25 38 46 45 44 32 37 46 51 36 48 54 49 49 48 43 42 44 42 40 38 38 41 42 43 42 41 38 42 45 53 49 47 42 38 34 33 31 30 29 28 26 25 25 25 23 22 21 19
27 29 31 46 40 31 45 48 45 50 45 42 51 46 44 49 42 44 43 42 41 37 38 42 44 45 45 44 41 46 46 52 47 44 40 37 36 33 32 30 28 27 27 26 24 25 24 22 20
24 30 31 33 36 43 48 45 51 54 47 46 36 44 49 54 52 47 45 36 44 43 36 39 47 48 48 46 44 49 56 61 52 48 41 39 37 34 32 31 29 27 27 28 28 26 25 23 21
25 27 30 31 37 39 44 54 46 67 56 46 44 35 45 49 59 57 54 48 49 46 43 37 44 50 46 51 51 44 57 56 50 47 44 42 38 35 33 32 30 29 31 30 29 27 26 25 23
27 31 30 30 29 29 27 55 39 55 52 44 54 40 40 46 40 45 52 47 51 52 48 44 43 46 50 47 49 53 50 63 49 55 53 45 41 37 33 32 31 31 33 32 31 30 28 26 24
29 30 35 31 24 27 23 55 39 20 22 55 35 57 38 43 46 49 41 42 39 48 45 42 44 45 47 50 51 52 52 44 46 54 54 46 43 41 37 35 35 35 36 34 34 31 29 27 25
30 35 34 38 30 28 23 42 26 20 35 38 57 39 40 49 50 44 45 39 38 38 42 43 42 46 46 49 47 44 43 42 47 47 56 48 45 43 37 37 37 37 37 37 34 33 30 28 26
29 30 31 32 25 21 25 30 23 25 26 25 34 51 45 52 58 47 42 38 37 39 38 38 46 43 43 45 47 47 43 35 48 50 54 53 48 45 41 42 40 39 39 38 36 34 32 30 28
31 33 35 34 31 28 30 31 24 19 27 32 29 25 42 36 45 54 43 42 36 40 40 39 46 48 47 46 48 46 45 40 38 40 49 53 50 45 46 44 43 41 39 38 37 36 34 33 30
25 30 35 30 28 23 28 31 27 24 24 29 45 36 34 40 39 47 45 44 37 39 43 41 45 47 48 46 44 45 43 38 45 48 49 52 55 53 49 45 44 43 42 42 40 37 37 34 31
20 26 28 30 21 23 26 33 31 26 25 27 48 36 27 40 42 37 44 42 38 40 42 43 46 48 44 45 45 48 44 46 49 51 55 47 58 62 48 48 46 45 44 42 40 38 36 33 31
24 20 23 23 18 17 3 8 17 21 23 30 30 38 33 29 40 43 42 44 41 39 41 44 43 42 43 42 40 44 49 49 35 37 42 50 61 52 58 48 49 47 45 44 41 39 38 34 30
24 18 18 16 20 21 24 11 10 15 20 18 24 38 27 26 40 48 50 43 40 42 41 45 44 43 41 41 40 44 48 40 40 39 47 49 55 66 56 51 49 48 47 45 43 41 40 36 34
20 21 18 15 16 10 27 13 3 5 9 19 25 36 33 26 29 41 41 46 40 38 38 43 44 45 37 40 44 49 43 43 47 46 47 51 60 58 56 57 49 51 49 46 44 43 40 38 36
5 12 3 7 8 8 8 14 2 4 8 16 25 32 39 29 25 38 35 46 37 41 40 39 43 45 44 42 41 44 44 40 33 35 48 52 49 59 50 60 59 53 49 48 45 45 42 40 39
18 10 6 3 4 5 11 7 3 4 6 11 14 27 31 37 29 24 33 38 23 49 49 45 44 40 45 39 30 23 30 33 22 26 31 43 43 44 48 62 59 52 50 48 47 46 44 41 41
14 4 6 8 8 5 9 5 3 3 6 11 16 21 29 35 37 38 25 29 24 30 51 48 42 47 38 36 24 17 26 29 32 31 26 32 36 49 45 50 61 58 53 51 50 48 46 44 42
21 11 1 6 3 4 5 5 6 2 3 9 14 20 25 34 34 31 31 29 31 23 40 41 37 40 37 29 21 20 21 20 28 27 30 29 35 44 38 56 68 59 55 52 49 48 48 46 43
26 16 8 8 6 4 4 5 7 7 5 3 9 14 23 32 39 36 34 31 27 26 31 43 39 41 36 31 26 24 18 22 22 27 35 27 35 27 49 56 54 56 50 48 46 47 48 45 46
22 24 11 5 6 5 4 4 6 6 5 4 5 8 15 25 36 40 39 35 28 31 33 36 47 39 39 36 30 26 21 21 22 30 26 35 35 33 42 52 50 58 51 51 49 49 48 46 44
Wind_Direction
228 220 216 220 223 234 243 232 230 233 220 220 224 223 223 219 198 214 245 233 214 212 204 208 206 200 197 198 198 199 204 200 191 186 180 181 182 181 182 184 198 193 191 180 157 163 155 154 137
223 215 214 219 223 235 244 231 229 224 220 219 220 224 228 226 216 223 227 224 214 215 211 206 207 208 204 204 202 199 202 206 200 191 188 186 188 187 189 190 202 198 197 189 166 161 161 156 141
218 222 215 217 226 231 235 232 233 226 221 224 222 227 226 228 218 215 221 217 202 208 211 208 207 209 209 206 209 201 201 205 205 199 193 189 194 193 196 196 199 202 201 189 178 163 167 159 147
206 220 218 222 227 235 234 233 244 223 223 226 212 226 229 224 228 220 220 211 209 202 203 209 209 209 210 212 211 210 202 202 205 205 202 198 199 198 202 201 199 200 193 192 185 172 164 160 155
200 214 214 225 231 239 236 231 235 225 218 220 215 222 231 229 229 224 221 224 216 207 210 215 211 206 207 210 213 214 208 203 206 207 207 208 206 204 204 205 202 196 192 194 191 177 166 165 158
209 215 220 217 234 237 237 230 232 230 221 221 224 225 233 233 231 221 218 220 206 210 207 210 209 204 203 209 214 215 215 209 206 209 208 210 211 207 208 209 204 197 195 192 197 181 170 171 162
218 225 234 245 241 240 237 231 232 230 228 219 221 230 227 232 228 229 216 214 203 203 205 206 204 205 207 211 213 213 217 215 211 210 210 209 210 210 212 213 204 197 198 192 200 186 176 173 167
221 230 242 239 250 243 242 239 233 233 231 230 223 231 221 228 225 216 206 216 218 212 204 208 212 209 207 209 214 214 216 218 215 213 210 208 207 210 214 213 205 199 197 193 198 191 183 175 176
227 243 237 242 254 257 248 239 238 237 234 230 227 231 227 225 222 217 225 224 212 211 213 208 207 208 208 209 211 214 214 219 218 217 215 207 206 208 211 211 206 201 198 195 192 195 188 182 178
238 240 241 241 251 259 245 235 243 235 227 226 226 229 232 233 238 224 227 220 215 212 214 214 210 207 209 211 212 214 216 215 215 216 216 209 205 209 212 208 204 202 200 197 189 194 194 187 182
261 242 239 246 247 257 252 239 236 226 227 223 226 227 224 219 223 223 220 212 211 213 213 215 215 213 212 217 214 217 218 211 214 214 213 208 206 207 207 206 203 199 199 200 190 193 196 194 187
269 260 256 251 254 270 256 254 240 228 220 228 232 226 226 216 214 215 212 214 219 223 223 222 223 218 219 216 219 226 227 210 214 215 211 207 207 205 207 207 205 201 200 200 193 194 197 200 193
266 274 270 265 263 264 264 255 260 238 215 210 218 228 223 228 219 218 213 227 231 228 228 222 221 222 220 223 222 221 222 230 216 209 210 208 207 206 208 207 205 203 201 197 197 195 195 200 200
268 274 276 275 267 271 270 263 261 242 231 211 212 210 228 226 231 234 237 233 225 228 228 223 221 220 221 223 224 225 212 237 201 207 209 208 205 205 208 207 203 199 201 201 197 198 195 197 203
264 273 274 272 280 281 287 265 258 257 254 241 211 203 221 228 224 222 230 229 223 227 225 226 225 219 222 221 225 227 225 216 220 214 207 202 203 204 205 207 203 202 203 200 202 198 197 197 201
266 269 271 273 273 278 280 275 262 269 259 243 209 215 215 220 220 222 224 220 226 226 219 218 221 217 218 223 225 228 227 223 210 210 209 199 202 207 205 204 205 204 204 202 202 201 201 200 199
256 260 267 277 274 282 268 274 270 264 258 251 231 210 215 224 216 214 219 219 219 215 213 219 216 218 217 224 227 228 232 223 216 216 209 203 206 207 206 208 205 207 207 205 203 203 199 202 200
260 261 269 273 271 270 280 268 269 256 235 235 230 237 214 223 223 218 209 209 210 211 215 218 209 212 216 220 223 226 232 232 220 219 218 204 207 207 206 209 205 207 207 205 204 202 202 199 201
265 268 270 265 268 273 273 276 267 270 238 240 223 209 235 220 216 216 219 207 214 217 218 216 210 210 221 223 222 226 230 220 215 226 227 206 212 207 208 209 206 207 207 207 206 204 203 203 199
259 261 264 273 270 275 275 275 267 255 240 229 236 220 222 218 223 220 222 222 218 214 213 214 209 210 219 225 225 225 231 240 234 229 219 211 208 211 208 210 209 207 207 206 207 206 209 202 205
262 256 267 266 281 279 279 277 265 251 233 224 227 233 219 223 211 219 218 217 214 208 211 215 214 214 219 222 222 221 227 228 228 232 218 217 216 214 211 208 210 209 207 209 208 209 211 210 208
267 271 264 264 260 256 252 285 270 227 231 226 230 236 214 221 215 214 203 199 208 209 215 217 217 214 218 223 226 228 228 230 230 220 229 226 215 223 213 207 207 208 208 207 207 208 211 208 211
272 280 257 259 246 258 265 258 309 210 203 202 216 227 219 217 214 213 206 200 206 212 218 214 213 217 220 222 226 226 218 231 224 235 238 225 225 218 212 204 206 207 206 208 207 208 211 209 212
288 281 270 241 234 237 247 220 65 104 185 195 203 220 230 223 201 205 208 207 203 209 211 213 213 215 216 214 219 224 227 220 234 235 232 229 220 225 226 199 206 207 207 206 208 208 210 214 214
7 255 250 184 203 245 240 196 337 298 214 207 204 206 224 235 216 203 185 197 206 198 208 214 210 214 212 216 208 206 207 217 226 228 220 219 216 220 233 233 203 207 205 206 206 211 212 214 218
308 245 263 257 228 271 182 188 121 259 245 223 208 206 207 230 233 224 179 182 176 200 203 208 215 203 218 211 195 195 197 199 203 216 213 214 230 224 222 222 207 205 206 205 207 211 214 215 220
331 331 229 282 248 259 127 102 130 225 237 228 214 191 199 212 225 233 236 209 179 184 207 210 215 213 200 188 182 195 206 208 220 225 231 218 228 217 230 219 204 202 205 205 208 211 215 216 221
19 352 329 245 275 246 102 105 17 269 234 219 217 201 193 198 207 218 230 251 242 218 198 209 201 207 197 183 192 211 211 204 204 222 215 208 210 215 221 209 205 201 206 208 210 212 215 218 222
15 15 354 294 276 300 187 107 329 318 319 290 223 206 193 193 195 221 212 221 236 233 192 209 210 203 192 198 207 213 208 203 219 213 215 215 213 203 209 205 208 203 206 212 214 217 218 220 224
11 10 1 301 6 339 332 94 329 311 302 311 268 221 205 192 192 191 204 198 223 233 233 191 205 204 205 210 208 204 207 208 210 206 207 221 216 210 209 214 223 211 205 215 219 220 220 222 225
Height
3091 3094 3098 3101 3102 3078 3041 3047 3067 3071 3074 3077 3083 3085 3090 3098 3098 3103 3098 3103 3111 3116 3119 3125 3131 3135 3137 3140 3142 3145 3149 3151 3153 3155 3158 3161 3163 3165 3168 3169 3170 3172 3173 3173 3173 3176 3177 3179 3179
3084 3086 3091 3089 3079 3064 2995 3056 3058 3067 3070 3069 3077 3080 3083 3085 3094 3095 3097 3100 3105 3112 3116 3120 3126 3132 3135 3138 3140 3143 3147 3149 3152 3154 3157 3159 3162 3164 3166 3168 3170 3171 3173 3173 3173 3176 3177 3179 3180
3076 3079 3082 3074 3063 3021 3023 3054 3057 3064 3063 3065 3073 3075 3078 3077 3087 3091 3095 3098 3101 3107 3112 3117 3122 3127 3132 3135 3138 3141 3144 3147 3150 3153 3155 3158 3160 3163 3165 3167 3168 3170 3173 3173 3174 3175 3177 3179 3180
3064 3067 3064 3054 3027 2990 3039 3056 3059 3059 3059 3060 3067 3069 3067 3074 3078 3085 3091 3096 3101 3104 3107 3112 3118 3123 3128 3132 3135 3139 3141 3145 3148 3151 3154 3157 3159 3161 3163 3166 3167 3169 3172 3173 3175 3174 3177 3179 3181
3052 3050 3041 3032 3010 3011 3039 3050 3052 3052 3054 3057 3059 3061 3062 3069 3074 3082 3088 3092 3097 3101 3104 3108 3113 3118 3123 3128 3132 3135 3139 3142 3145 3149 3152 3155 3158 3160 3162 3164 3166 3168 3170 3173 3175 3175 3176 3179 3181
3039 3033 3024 3015 3008 3022 3032 3045 3050 3048 3051 3053 3053 3059 3061 3066 3072 3077 3083 3087 3092 3096 3100 3104 3108 3113 3118 3123 3128 3132 3136 3139 3142 3146 3149 3153 3156 3159 3161 3163 3165 3167 3169 3171 3174 3175 3176 3179 3181
3027 3024 3015 3015 3014 3015 3019 3040 3040 3042 3045 3045 3052 3052 3060 3060 3069 3073 3079 3083 3088 3091 3094 3099 3103 3107 3112 3117 3123 3128 3132 3135 3139 3142 3146 3149 3153 3157 3158 3161 3163 3166 3168 3170 3174 3175 3176 3178 3180
3018 3016 3010 3011 3009 3005 3025 3035 3035 3036 3034 3048 3047 3040 3049 3054 3062 3067 3072 3077 3081 3086 3089 3093 3098 3103 3107 3112 3118 3123 3127 3131 3135 3138 3141 3146 3150 3153 3156 3159 3161 3164 3166 3168 3172 3175 3176 3177 3180
3012 3005 3003 3004 3011 3009 3017 3023 3023 3027 3032 3034 3032 3037 3046 3051 3057 3062 3066 3069 3072 3078 3083 3088 3092 3097 3102 3107 3112 3117 3121 3126 3130 3134 3138 3142 3146 3150 3152 3156 3159 3162 3164 3166 3169 3173 3175 3177 3179
3003 3000 2997 3004 3007 3000 3001 3002 3009 3018 3017 3020 3024 3030 3035 3041 3049 3053 3058 3063 3067 3073 3077 3082 3087 3092 3097 3101 3106 3110 3114 3119 3123 3128 3134 3138 3143 3146 3150 3153 3155 3159 3162 3165 3167 3171 3174 3175 3177
2995 2990 2994 2993 2993 2990 2991 2991 2993 2997 3000 3008 3014 3022 3027 3032 3040 3045 3051 3057 3062 3069 3074 3077 3082 3088 3092 3095 3097 3102 3106 3109 3114 3122 3128 3134 3139 3142 3146 3148 3151 3155 3159 3163 3164 3169 3172 3174 3176
2986 2986 2986 2984 2983 2980 2977 2979 2980 2983 2987 3009 3013 3021 3022 3025 3031 3037 3043 3051 3056 3061 3067 3072 3076 3083 3087 3090 3093 3090 3098 3093 3108 3115 3123 3129 3134 3138 3142 3146 3149 3153 3156 3160 3163 3166 3170 3174 3175
2980 2978 2978 2978 2975 2971 2970 2969 2971 2970 2981 2988 2996 3007 3013 3017 3024 3030 3037 3044 3050 3055 3059 3063 3070 3076 3081 3083 3088 3092 3090 3092 3101 3110 3118 3123 3129 3135 3139 3142 3147 3151 3154 3157 3159 3164 3167 3172 3174
2974 2972 2970 2968 2967 2965 2962 2961 2966 2962 2972 2976 2984 2990 3000 3005 3014 3022 3027 3035 3042 3045 3051 3056 3061 3067 3072 3078 3082 3081 3074 3085 3093 3103 3112 3118 3125 3131 3135 3139 3143 3146 3151 3154 3157 3161 3164 3168 3172
2968 2964 2963 2961 2962 2959 2958 2942 2951 2954 2962 2965 2971 2977 2990 2997 3004 3010 3017 3025 3031 3036 3043 3048 3052 3059 3064 3070 3073 3075 3077 3078 3084 3093 3103 3111 3119 3126 3131 3136 3139 3144 3147 3149 3155 3157 3161 3164 3169
2961 2959 2954 2953 2955 2953 2956 2926 2945 2950 2948 2952 2960 2968 2977 2986 2993 3002 3008 3015 3021 3027 3033 3040 3044 3051 3057 3060 3065 3069 3075 3079 3078 3089 3094 3102 3113 3120 3125 3129 3134 3139 3142 3147 3150 3154 3158 3161 3165
2952 2947 2948 2944 2948 2945 2947 2930 2942 2944 2944 2946 2951 2958 2967 2976 2984 2992 2999 3006 3013 3018 3024 3030 3036 3042 3049 3052 3059 3062 3069 3073 3075 3084 3088 3097 3106 3113 3119 3124 3129 3134 3139 3143 3146 3151 3154 3159 3162
2944 2941 2940 2938 2940 2940 2936 2932 2937 2938 2942 2942 2945 2949 2955 2965 2973 2984 2990 2998 3005 3010 3016 3021 3027 3035 3039 3045 3051 3056 3062 3066 3074 3076 3077 3091 3100 3103 3111 3119 3123 3129 3135 3139 3142 3147 3151 3154 3159
2940 2937 2933 2930 2932 2934 2929 2925 2927 2929 2929 2930 2934 2940 2949 2956 2968 2975 2982 2989 2996 3001 3008 3013 3018 3026 3029 3034 3041 3047 3053 3060 3065 3070 3074 3085 3092 3099 3105 3114 3118 3124 3130 3135 3139 3143 3147 3151 3154
2934 2931 2924 2925 2925 2927 2920 2916 2919 2922 2922 2926 2935 2940 2943 2950 2958 2966 2974 2983 2988 2993 3000 3006 3011 3019 3024 3029 3036 3044 3050 3054 3062 3065 3070 3075 3086 3093 3099 3108 3114 3118 3124 3128 3134 3139 3144 3146 3151
2926 2923 2921 2920 2922 2919 2915 2907 2908 2911 2915 2924 2932 2934 2940 2944 2950 2959 2966 2976 2981 2986 2993 3000 3005 3012 3017 3023 3028 3033 3040 3046 3051 3058 3065 3069 3078 3085 3089 3100 3108 3113 3118 3124 3130 3136 3141 3146 3149
2920 2919 2917 2917 2919 2913 2909 2900 2897 2901 2907 2915 2921 2926 2930 2937 2942 2949 2959 2967 2975 2981 2987 2994 3000 3006 3010 3015 3021 3027 3034 3039 3043 3050 3057 3064 3069 3075 3082 3093 3101 3108 3113 3119 3125 3132 3137 3140 3147
2914 2914 2911 2911 2911 2912 2907 2908 2897 2895 2903 2907 2910 2914 2919 2930 2936 2945 2953 2962 2969 2975 2981 2988 2994 2999 3004 3010 3015 3020 3025 3031 3038 3042 3048 3053 3059 3067 3077 3087 3096 3101 3107 3113 3119 3125 3132 3135 3141
2909 2907 2905 2906 2908 2903 2896 2904 2900 2895 2896 2899 2904 2908 2918 2920 2927 2936 2945 2954 2962 2970 2976 2982 2986 2992 2997 3001 3009 3014 3019 3023 3029 3032 3038 3044 3053 3061 3069 3076 3088 3095 3100 3106 3114 3120 3125 3131 3135
2906 2905 2898 2900 2898 2890 2888 2898 2899 2894 2894 2898 2901 2905 2914 2917 2920 2927 2933 2944 2952 2960 2969 2974 2979 2985 2991 2997 3000 3005 3012 3016 3020 3025 3029 3034 3042 3050 3059 3070 3076 3086 3093 3100 3106 3114 3119 3125 3130
2900 2903 2898 2889 2886 2880 2887 2890 2898 2896 2895 2896 2898 2901 2909 2913 2917 2920 2927 2935 2935 2952 2959 2968 2975 2978 2984 2990 2993 2996 3002 3009 3014 3018 3023 3029 3038 3045 3053 3062 3070 3079 3087 3093 3099 3107 3112 3117 3124
2901 2900 2899 2893 2885 2881 2890 2895 2897 2896 2897 2896 2897 2899 2903 2909 2913 2917 2922 2926 2932 2939 2952 2960 2965 2972 2978 2983 2988 2992 2996 3002 3006 3013 3017 3022 3029 3036 3043 3050 3058 3070 3078 3084 3092 3098 3105 3111 3117
2907 2904 2900 2892 2885 2877 2890 2895 2898 2895 2895 2894 2894 2893 2897 2901 2907 2912 2919 2921 2928 2936 2943 2952 2958 2965 2973 2978 2983 2989 2993 2997 3001 3006 3011 3017 3024 3031 3036 3043 3052 3061 3071 3077 3084 3092 3098 3104 3110
2908 2904 2902 2899 2893 2882 2878 2900 2900 2896 2895 2893 2893 2892 2894 2898 2902 2908 2914 2921 2925 2930 2938 2945 2952 2957 2967 2974 2980 2985 2988 2990 2996 2999 3005 3011 3019 3024 3032 3040 3048 3058 3066 3072 3077 3085 3091 3096 3103
2914 2909 2906 2903 2895 2893 2888 2903 2898 2896 2895 2893 2892 2890 2891 2892 2896 2901 2908 2912 2922 2928 2933 2938 2946 2951 2962 2968 2976 2980 2983 2988 2990 2996 3001 3008 3015 3022 3029 3035 3042 3049 3059 3066 3073 3080 3085 3091 3097